QPF
0.02 0.02 0.01 0.02 0.03 0.03 0.03 0.02 0.03 0.02 0.01 0.00 0.00 0.00 0.00 0.02 0.02 0.02 0.02 0.02 0.03 0.04 0.04 0.05 0.06 0.06 0.05 0.04 0.03 0.03 0.02 0.03 0.03 0.03 0.03 0.02 0.03 0.03 0.04 0.03 0.03 0.03 0.03
0.02 0.02 0.01 0.01 0.02 0.03 0.02 0.02 0.01 0.02 0.02 0.01 0.01 0.01 0.01 0.02 0.02 0.02 0.02 0.02 0.01 0.02 0.04 0.06 0.07 0.05 0.05 0.05 0.03 0.03 0.03 0.03 0.02 0.03 0.02 0.03 0.03 0.03 0.02 0.03 0.03 0.04 0.04
0.01 0.01 0.02 0.02 0.03 0.03 0.02 0.01 0.01 0.01 0.01 0.01 0.02 0.02 0.02 0.02 0.01 0.01 0.02 0.02 0.01 0.01 0.02 0.03 0.04 0.03 0.03 0.04 0.04 0.03 0.03 0.02 0.02 0.02 0.02 0.02 0.02 0.03 0.03 0.03 0.04 0.04 0.05
0.01 0.03 0.03 0.03 0.02 0.02 0.02 0.02 0.01 0.01 0.01 0.03 0.03 0.03 0.02 0.02 0.01 0.01 0.01 0.01 0.01 0.01 0.01 0.02 0.03 0.03 0.03 0.05 0.04 0.04 0.04 0.03 0.02 0.03 0.03 0.03 0.03 0.03 0.02 0.03 0.04 0.04 0.05
0.01 0.02 0.02 0.02 0.02 0.02 0.01 0.01 0.01 0.01 0.01 0.02 0.02 0.02 0.02 0.02 0.01 0.01 0.01 0.01 0.01 0.01 0.01 0.02 0.02 0.02 0.03 0.05 0.06 0.07 0.06 0.03 0.02 0.03 0.04 0.04 0.04 0.03 0.01 0.02 0.03 0.04 0.03
0.01 0.00 0.01 0.01 0.01 0.01 0.01 0.01 0.00 0.01 0.01 0.01 0.01 0.01 0.02 0.02 0.02 0.01 0.01 0.01 0.01 0.01 0.01 0.02 0.03 0.03 0.02 0.02 0.06 0.06 0.05 0.05 0.04 0.03 0.04 0.05 0.05 0.03 0.02 0.02 0.02 0.03 0.03
0.00 0.00 0.00 0.01 0.01 0.00 0.01 0.01 0.00 0.01 0.01 0.01 0.02 0.03 0.02 0.02 0.02 0.02 0.01 0.00 0.00 0.01 0.02 0.03 0.04 0.04 0.03 0.02 0.03 0.03 0.03 0.03 0.03 0.03 0.04 0.04 0.04 0.03 0.03 0.02 0.02 0.02 0.02
0.00 0.00 0.00 0.00 0.00 0.01 0.00 0.00 0.00 0.01 0.01 0.01 0.02 0.04 0.05 0.05 0.04 0.01 0.01 0.01 0.01 0.01 0.03 0.03 0.04 0.04 0.04 0.04 0.02 0.01 0.01 0.02 0.02 0.02 0.03 0.03 0.04 0.03 0.03 0.03 0.02 0.02 0.02
0.01 0.00 0.00 0.01 0.00 0.01 0.01 0.00 0.00 0.01 0.02 0.02 0.01 0.03 0.04 0.04 0.04 0.03 0.02 0.01 0.00 0.01 0.02 0.02 0.03 0.03 0.02 0.03 0.03 0.01 0.01 0.01 0.01 0.01 0.02 0.03 0.03 0.03 0.03 0.03 0.04 0.04 0.02
0.02 0.01 0.00 0.00 0.00 0.00 0.01 0.01 0.00 0.01 0.02 0.02 0.01 0.02 0.03 0.03 0.03 0.03 0.03 0.02 0.01 0.01 0.02 0.02 0.02 0.04 0.03 0.02 0.02 0.01 0.01 0.01 0.01 0.01 0.02 0.02 0.03 0.03 0.04 0.04 0.04 0.03 0.03
0.02 0.02 0.01 0.01 0.00 0.00 0.01 0.01 0.00 0.01 0.01 0.01 0.01 0.01 0.02 0.03 0.02 0.02 0.03 0.04 0.03 0.02 0.01 0.02 0.02 0.03 0.04 0.03 0.02 0.01 0.00 0.00 0.01 0.01 0.01 0.01 0.02 0.03 0.05 0.05 0.03 0.03 0.04
0.02 0.02 0.01 0.00 0.00 0.00 0.01 0.01 0.01 0.01 0.01 0.01 0.01 0.01 0.02 0.03 0.03 0.02 0.02 0.03 0.03 0.03 0.02 0.02 0.01 0.01 0.02 0.03 0.02 0.01 0.00 0.00 0.00 0.01 0.01 0.01 0.02 0.02 0.03 0.05 0.04 0.04 0.04
0.01 0.02 0.01 0.01 0.01 0.00 0.01 0.01 0.01 0.01 0.01 0.01 0.01 0.01 0.01 0.02 0.03 0.03 0.03 0.02 0.02 0.02 0.03 0.02 0.01 0.01 0.01 0.01 0.01 0.01 0.00 0.00 0.00 0.00 0.00 0.00 0.01 0.01 0.03 0.03 0.04 0.04 0.05
0.01 0.02 0.02 0.02 0.02 0.02 0.00 0.00 0.01 0.01 0.01 0.02 0.01 0.01 0.01 0.02 0.03 0.04 0.04 0.02 0.02 0.02 0.02 0.02 0.01 0.01 0.01 0.01 0.01 0.00 0.00 0.01 0.00 0.00 0.00 0.01 0.01 0.01 0.02 0.02 0.03 0.03 0.04
0.01 0.01 0.01 0.02 0.03 0.03 0.02 0.01 0.01 0.01 0.01 0.01 0.01 0.02 0.03 0.02 0.03 0.03 0.03 0.02 0.02 0.03 0.03 0.02 0.02 0.01 0.01 0.01 0.01 0.01 0.01 0.00 0.00 0.01 0.01 0.01 0.01 0.01 0.01 0.01 0.02 0.03 0.04
0.01 0.01 0.02 0.02 0.02 0.03 0.03 0.03 0.02 0.02 0.02 0.01 0.01 0.02 0.03 0.02 0.02 0.03 0.02 0.02 0.02 0.04 0.03 0.03 0.02 0.01 0.01 0.01 0.01 0.01 0.01 0.00 0.00 0.00 0.00 0.00 0.00 0.00 0.00 0.01 0.01 0.03 0.04
0.01 0.01 0.01 0.02 0.01 0.01 0.02 0.03 0.02 0.03 0.02 0.01 0.01 0.01 0.01 0.01 0.03 0.05 0.03 0.02 0.02 0.03 0.03 0.03 0.02 0.01 0.01 0.01 0.01 0.01 0.00 0.00 0.00 0.00 0.00 0.00 0.00 0.00 0.00 0.01 0.02 0.04 0.04
0.00 0.00 0.00 0.01 0.01 0.02 0.02 0.02 0.02 0.03 0.03 0.02 0.01 0.01 0.00 0.01 0.02 0.04 0.04 0.03 0.03 0.02 0.02 0.02 0.02 0.01 0.01 0.01 0.01 0.00 0.00 0.00 0.00 0.00 0.00 0.00 0.00 0.00 0.01 0.02 0.02 0.02 0.02
0.00 0.00 0.01 0.01 0.01 0.02 0.02 0.02 0.02 0.02 0.03 0.03 0.03 0.02 0.01 0.01 0.02 0.02 0.02 0.03 0.03 0.03 0.03 0.02 0.02 0.01 0.01 0.01 0.01 0.00 0.00 0.00 0.00 0.00 0.00 0.00 0.00 0.00 0.01 0.01 0.02 0.02 0.02
0.01 0.01 0.01 0.01 0.02 0.01 0.01 0.01 0.03 0.02 0.02 0.02 0.02 0.03 0.02 0.02 0.03 0.03 0.03 0.03 0.03 0.03 0.03 0.02 0.01 0.01 0.01 0.01 0.00 0.00 0.00 0.00 0.00 0.00 0.00 0.00 0.01 0.00 0.00 0.01 0.01 0.02 0.02
0.01 0.01 0.01 0.01 0.02 0.02 0.02 0.02 0.02 0.03 0.03 0.03 0.03 0.03 0.03 0.04 0.05 0.05 0.04 0.02 0.02 0.02 0.03 0.02 0.01 0.01 0.01 0.01 0.01 0.00 0.00 0.00 0.01 0.01 0.00 0.00 0.01 0.01 0.01 0.01 0.01 0.02 0.02
0.02 0.01 0.01 0.01 0.01 0.02 0.03 0.03 0.03 0.03 0.04 0.05 0.06 0.04 0.03 0.04 0.04 0.05 0.03 0.02 0.03 0.03 0.03 0.02 0.01 0.01 0.01 0.00 0.01 0.01 0.01 0.01 0.02 0.01 0.01 0.01 0.01 0.01 0.01 0.01 0.01 0.01 0.02
0.02 0.02 0.02 0.01 0.01 0.02 0.03 0.03 0.04 0.04 0.05 0.07 0.06 0.04 0.03 0.02 0.02 0.02 0.02 0.02 0.02 0.02 0.02 0.03 0.02 0.02 0.01 0.01 0.01 0.01 0.01 0.01 0.01 0.01 0.01 0.01 0.01 0.01 0.01 0.01 0.01 0.01 0.01
0.02 0.02 0.01 0.01 0.01 0.02 0.02 0.03 0.04 0.03 0.04 0.05 0.04 0.04 0.03 0.03 0.02 0.03 0.02 0.02 0.01 0.01 0.01 0.02 0.02 0.02 0.01 0.02 0.02 0.01 0.01 0.01 0.01 0.01 0.01 0.01 0.01 0.01 0.01 0.01 0.01 0.01 0.01
0.02 0.02 0.01 0.01 0.01 0.01 0.01 0.02 0.03 0.03 0.03 0.03 0.02 0.03 0.03 0.03 0.03 0.04 0.03 0.02 0.02 0.01 0.01 0.02 0.02 0.03 0.03 0.03 0.02 0.02 0.01 0.01 0.01 0.01 0.01 0.01 0.01 0.02 0.01 0.01 0.01 0.01 0.01
0.02 0.02 0.02 0.02 0.02 0.01 0.01 0.02 0.03 0.03 0.04 0.03 0.02 0.02 0.02 0.02 0.03 0.03 0.03 0.03 0.02 0.02 0.01 0.02 0.02 0.02 0.02 0.02 0.02 0.01 0.01 0.02 0.02 0.02 0.01 0.01 0.02 0.02 0.02 0.01 0.01 0.01 0.01
MSLP
1010.66 1010.85 1010.97 1011.04 1011.08 1011.11 1011.17 1011.24 1011.32 1011.37 1011.36 1011.28 1011.12 1010.91 1010.69 1010.50 1010.39 1010.39 1010.50 1010.69 1010.93 1011.17 1011.38 1011.52 1011.59 1011.61 1011.60 1011.58 1011.58 1011.61 1011.65 1011.69 1011.72 1011.71 1011.66 1011.60 1011.53 1011.49 1011.48 1011.52 1011.59 1011.65 1011.69
1010.66 1010.81 1010.90 1010.96 1011.00 1011.04 1011.09 1011.16 1011.22 1011.25 1011.21 1011.10 1010.92 1010.68 1010.43 1010.22 1010.08 1010.04 1010.12 1010.28 1010.50 1010.73 1010.93 1011.08 1011.18 1011.22 1011.23 1011.23 1011.23 1011.25 1011.28 1011.30 1011.31 1011.29 1011.24 1011.19 1011.14 1011.11 1011.12 1011.17 1011.24 1011.32 1011.36
1010.69 1010.78 1010.84 1010.87 1010.90 1010.94 1010.99 1011.06 1011.11 1011.12 1011.07 1010.94 1010.73 1010.47 1010.19 1009.94 1009.76 1009.68 1009.70 1009.81 1009.99 1010.19 1010.39 1010.55 1010.66 1010.74 1010.78 1010.80 1010.82 1010.85 1010.87 1010.89 1010.89 1010.86 1010.82 1010.77 1010.72 1010.70 1010.71 1010.76 1010.82 1010.89 1010.94
1010.80 1010.82 1010.83 1010.83 1010.84 1010.88 1010.93 1010.99 1011.04 1011.04 1010.97 1010.83 1010.60 1010.32 1010.01 1009.72 1009.48 1009.33 1009.28 1009.32 1009.44 1009.60 1009.77 1009.93 1010.06 1010.16 1010.23 1010.29 1010.34 1010.38 1010.41 1010.44 1010.43 1010.41 1010.37 1010.32 1010.27 1010.25 1010.25 1010.28 1010.33 1010.39 1010.43
1011.00 1010.96 1010.92 1010.89 1010.88 1010.90 1010.95 1011.00 1011.04 1011.03 1010.96 1010.80 1010.56 1010.25 1009.91 1009.57 1009.27 1009.05 1008.92 1008.88 1008.91 1009.00 1009.13 1009.26 1009.39 1009.50 1009.60 1009.69 1009.76 1009.83 1009.88 1009.91 1009.92 1009.91 1009.88 1009.83 1009.79 1009.76 1009.75 1009.76 1009.79 1009.82 1009.85
1011.30 1011.20 1011.12 1011.06 1011.03 1011.04 1011.07 1011.12 1011.14 1011.12 1011.04 1010.87 1010.62 1010.29 1009.92 1009.54 1009.19 1008.89 1008.66 1008.52 1008.46 1008.47 1008.52 1008.60 1008.70 1008.81 1008.91 1009.01 1009.11 1009.19 1009.26 1009.31 1009.34 1009.35 1009.33 1009.31 1009.27 1009.24 1009.22 1009.21 1009.22 1009.23 1009.23
1011.67 1011.54 1011.43 1011.34 1011.30 1011.29 1011.31 1011.34 1011.36 1011.33 1011.23 1011.06 1010.80 1010.47 1010.08 1009.67 1009.26 1008.88 1008.57 1008.33 1008.16 1008.06 1008.02 1008.03 1008.07 1008.14 1008.22 1008.31 1008.41 1008.50 1008.59 1008.66 1008.71 1008.74 1008.76 1008.75 1008.73 1008.71 1008.69 1008.67 1008.65 1008.64 1008.62
1012.08 1011.94 1011.81 1011.72 1011.67 1011.64 1011.65 1011.67 1011.66 1011.63 1011.53 1011.36 1011.10 1010.78 1010.39 1009.96 1009.52 1009.08 1008.68 1008.34 1008.06 1007.85 1007.70 1007.61 1007.57 1007.57 1007.60 1007.66 1007.73 1007.82 1007.91 1007.99 1008.07 1008.13 1008.17 1008.20 1008.21 1008.20 1008.19 1008.16 1008.12 1008.09 1008.05
1012.52 1012.38 1012.26 1012.16 1012.10 1012.08 1012.07 1012.06 1012.05 1012.00 1011.90 1011.74 1011.51 1011.20 1010.83 1010.41 1009.96 1009.49 1009.03 1008.61 1008.23 1007.90 1007.63 1007.43 1007.28 1007.19 1007.15 1007.14 1007.17 1007.23 1007.31 1007.40 1007.49 1007.57 1007.64 1007.70 1007.74 1007.75 1007.74 1007.71 1007.66 1007.60 1007.54
1012.94 1012.83 1012.72 1012.64 1012.58 1012.55 1012.52 1012.50 1012.47 1012.41 1012.32 1012.17 1011.97 1011.71 1011.38 1011.00 1010.56 1010.09 1009.60 1009.12 1008.66 1008.23 1007.86 1007.54 1007.28 1007.08 1006.94 1006.86 1006.83 1006.84 1006.88 1006.95 1007.04 1007.13 1007.22 1007.29 1007.35 1007.37 1007.36 1007.32 1007.26 1007.18 1007.08
1013.36 1013.27 1013.20 1013.13 1013.07 1013.03 1012.98 1012.94 1012.89 1012.82 1012.74 1012.62 1012.46 1012.26 1011.99 1011.66 1011.28 1010.83 1010.35 1009.84 1009.32 1008.82 1008.36 1007.93 1007.57 1007.27 1007.03 1006.85 1006.74 1006.68 1006.68 1006.71 1006.77 1006.85 1006.93 1007.00 1007.05 1007.07 1007.06 1007.00 1006.91 1006.80 1006.68
1013.76 1013.72 1013.67 1013.62 1013.56 1013.51 1013.44 1013.37 1013.30 1013.23 1013.15 1013.06 1012.95 1012.80 1012.61 1012.36 1012.04 1011.65 1011.20 1010.70 1010.16 1009.61 1009.08 1008.58 1008.12 1007.73 1007.39 1007.13 1006.93 1006.80 1006.72 1006.69 1006.70 1006.74 1006.78 1006.83 1006.85 1006.84 1006.80 1006.71 1006.59 1006.44 1006.28
1014.18 1014.17 1014.15 1014.11 1014.05 1013.98 1013.89 1013.79 1013.70 1013.61 1013.53 1013.46 1013.40 1013.32 1013.20 1013.04 1012.80 1012.47 1012.07 1011.60 1011.07 1010.51 1009.94 1009.39 1008.87 1008.40 1007.98 1007.63 1007.35 1007.13 1006.97 1006.86 1006.80 1006.77 1006.75 1006.73 1006.70 1006.64 1006.55 1006.42 1006.26 1006.07 1005.86
1014.61 1014.64 1014.64 1014.61 1014.56 1014.47 1014.35 1014.22 1014.10 1013.99 1013.90 1013.85 1013.82 1013.79 1013.74 1013.64 1013.48 1013.23 1012.88 1012.46 1011.96 1011.41 1010.83 1010.25 1009.69 1009.16 1008.69 1008.27 1007.90 1007.60 1007.35 1007.15 1007.00 1006.87 1006.76 1006.67 1006.56 1006.43 1006.27 1006.08 1005.87 1005.63 1005.39
1015.09 1015.15 1015.17 1015.15 1015.09 1014.98 1014.84 1014.68 1014.52 1014.39 1014.29 1014.23 1014.21 1014.21 1014.20 1014.15 1014.04 1013.85 1013.56 1013.18 1012.72 1012.19 1011.63 1011.04 1010.47 1009.91 1009.39 1008.91 1008.48 1008.09 1007.75 1007.45 1007.20 1006.97 1006.76 1006.56 1006.36 1006.15 1005.92 1005.67 1005.40 1005.12 1004.84
1015.60 1015.69 1015.73 1015.72 1015.66 1015.54 1015.38 1015.19 1015.00 1014.83 1014.71 1014.63 1014.60 1014.60 1014.59 1014.57 1014.49 1014.32 1014.07 1013.73 1013.30 1012.80 1012.25 1011.68 1011.09 1010.52 1009.97 1009.45 1008.96 1008.50 1008.07 1007.67 1007.31 1006.97 1006.66 1006.36 1006.06 1005.76 1005.46 1005.16 1004.84 1004.53 1004.23
1016.15 1016.26 1016.32 1016.32 1016.26 1016.13 1015.96 1015.75 1015.53 1015.33 1015.17 1015.06 1014.99 1014.96 1014.93 1014.89 1014.80 1014.63 1014.39 1014.06 1013.65 1013.17 1012.64 1012.08 1011.50 1010.92 1010.35 1009.79 1009.24 1008.72 1008.21 1007.73 1007.27 1006.83 1006.42 1006.02 1005.64 1005.27 1004.91 1004.56 1004.21 1003.87 1003.56
1016.68 1016.82 1016.90 1016.91 1016.86 1016.74 1016.56 1016.33 1016.10 1015.87 1015.67 1015.51 1015.39 1015.30 1015.22 1015.13 1015.00 1014.81 1014.54 1014.20 1013.79 1013.32 1012.80 1012.25 1011.68 1011.09 1010.50 1009.91 1009.32 1008.73 1008.15 1007.59 1007.05 1006.53 1006.03 1005.56 1005.12 1004.70 1004.30 1003.91 1003.54 1003.19 1002.87
1017.17 1017.32 1017.42 1017.45 1017.41 1017.30 1017.13 1016.91 1016.66 1016.41 1016.18 1015.97 1015.79 1015.63 1015.48 1015.31 1015.12 1014.87 1014.57 1014.20 1013.78 1013.30 1012.79 1012.23 1011.65 1011.06 1010.44 1009.82 1009.18 1008.54 1007.91 1007.28 1006.68 1006.09 1005.54 1005.03 1004.54 1004.08 1003.66 1003.26 1002.88 1002.53 1002.20
1017.58 1017.74 1017.84 1017.89 1017.87 1017.78 1017.63 1017.42 1017.18 1016.92 1016.65 1016.40 1016.15 1015.92 1015.69 1015.45 1015.18 1014.87 1014.52 1014.12 1013.67 1013.18 1012.65 1012.09 1011.49 1010.88 1010.24 1009.58 1008.90 1008.21 1007.53 1006.85 1006.20 1005.58 1005.00 1004.45 1003.95 1003.48 1003.05 1002.65 1002.27 1001.92 1001.59
1017.88 1018.03 1018.14 1018.21 1018.21 1018.15 1018.02 1017.84 1017.60 1017.34 1017.06 1016.76 1016.47 1016.17 1015.86 1015.54 1015.20 1014.84 1014.43 1014.00 1013.52 1013.01 1012.47 1011.89 1011.28 1010.63 1009.96 1009.26 1008.54 1007.81 1007.08 1006.37 1005.68 1005.04 1004.44 1003.90 1003.40 1002.94 1002.51 1002.11 1001.73 1001.38 1001.05
1018.07 1018.21 1018.33 1018.40 1018.42 1018.38 1018.29 1018.13 1017.92 1017.66 1017.37 1017.05 1016.72 1016.36 1016.00 1015.61 1015.22 1014.80 1014.35 1013.88 1013.39 1012.86 1012.30 1011.70 1011.06 1010.39 1009.67 1008.93 1008.16 1007.39 1006.62 1005.88 1005.18 1004.53 1003.94 1003.40 1002.91 1002.46 1002.04 1001.65 1001.27 1000.91 1000.56
1018.18 1018.31 1018.42 1018.50 1018.54 1018.53 1018.46 1018.32 1018.13 1017.89 1017.59 1017.26 1016.89 1016.50 1016.09 1015.67 1015.23 1014.77 1014.30 1013.81 1013.30 1012.76 1012.18 1011.56 1010.90 1010.18 1009.43 1008.64 1007.82 1007.01 1006.21 1005.44 1004.73 1004.08 1003.49 1002.97 1002.49 1002.05 1001.64 1001.24 1000.85 1000.48 1000.11
1018.27 1018.39 1018.50 1018.58 1018.63 1018.63 1018.58 1018.46 1018.29 1018.05 1017.76 1017.41 1017.02 1016.61 1016.17 1015.71 1015.25 1014.77 1014.29 1013.79 1013.27 1012.72 1012.13 1011.49 1010.80 1010.04 1009.24 1008.40 1007.54 1006.69 1005.85 1005.07 1004.34 1003.69 1003.11 1002.59 1002.12 1001.69 1001.27 1000.86 1000.45 1000.04 999.65
1018.41 1018.52 1018.63 1018.71 1018.76 1018.76 1018.72 1018.61 1018.44 1018.20 1017.90 1017.54 1017.14 1016.70 1016.24 1015.77 1015.29 1014.81 1014.32 1013.83 1013.31 1012.75 1012.15 1011.49 1010.76 1009.97 1009.13 1008.24 1007.34 1006.44 1005.57 1004.76 1004.03 1003.36 1002.78 1002.26 1001.78 1001.34 1000.90 1000.46 1000.02 999.58 999.16
1018.65 1018.77 1018.87 1018.94 1018.99 1018.98 1018.93 1018.82 1018.64 1018.38 1018.07 1017.69 1017.27 1016.82 1016.35 1015.87 1015.38 1014.90 1014.41 1013.92 1013.40 1012.84 1012.23 1011.55 1010.80 1009.97 1009.08 1008.16 1007.21 1006.27 1005.38 1004.54 1003.78 1003.11 1002.51 1001.97 1001.47 1001.00 1000.53 1000.05 999.57 999.09 998.64
Thickness
5734 5733 5731 5730 5730 5730 5730 5729 5729 5729 5729 5730 5730 5729 5728 5726 5724 5722 5721 5721 5721 5721 5721 5721 5720 5720 5719 5719 5719 5720 5719 5719 5719 5719 5719 5718 5718 5718 5718 5718 5718 5718 5718
5732 5730 5729 5728 5727 5727 5727 5727 5726 5725 5725 5725 5724 5724 5723 5722 5720 5719 5717 5716 5716 5716 5716 5716 5716 5715 5715 5714 5715 5715 5715 5715 5715 5714 5714 5714 5714 5713 5713 5714 5714 5714 5714
5729 5728 5726 5724 5724 5724 5723 5723 5723 5722 5721 5720 5719 5719 5719 5718 5717 5715 5714 5713 5712 5711 5711 5711 5711 5710 5710 5710 5710 5710 5710 5710 5710 5710 5709 5709 5709 5709 5709 5710 5710 5710 5710
5726 5724 5723 5721 5721 5720 5719 5718 5717 5716 5715 5715 5714 5714 5714 5714 5713 5712 5711 5710 5709 5707 5707 5706 5706 5706 5706 5706 5705 5705 5705 5705 5705 5705 5705 5705 5705 5705 5705 5705 5705 5706 5706
5723 5721 5719 5718 5718 5716 5715 5714 5712 5711 5710 5709 5710 5710 5710 5710 5710 5709 5708 5707 5706 5704 5703 5702 5701 5701 5701 5701 5701 5701 5701 5701 5700 5700 5700 5700 5700 5700 5699 5700 5700 5701 5701
5720 5718 5716 5715 5714 5712 5710 5710 5708 5708 5707 5706 5707 5706 5706 5706 5706 5705 5704 5703 5702 5701 5700 5699 5698 5697 5697 5697 5697 5697 5697 5696 5696 5696 5695 5695 5695 5695 5695 5695 5696 5696 5696
5716 5715 5713 5712 5710 5708 5707 5706 5704 5703 5702 5703 5700 5698 5700 5702 5702 5701 5701 5700 5698 5698 5697 5696 5695 5694 5693 5692 5692 5692 5692 5692 5691 5691 5690 5690 5690 5690 5690 5690 5691 5691 5692
5712 5711 5710 5708 5706 5704 5703 5701 5700 5697 5697 5698 5694 5689 5686 5688 5693 5697 5696 5694 5694 5694 5693 5693 5692 5691 5689 5688 5687 5687 5687 5687 5686 5686 5685 5685 5685 5685 5685 5686 5686 5687 5687
5708 5707 5706 5704 5703 5701 5698 5697 5696 5693 5690 5692 5693 5687 5680 5677 5681 5687 5690 5690 5690 5689 5688 5688 5688 5687 5685 5684 5683 5682 5682 5682 5681 5681 5681 5681 5681 5681 5681 5681 5681 5681 5681
5705 5703 5702 5700 5699 5697 5695 5693 5693 5690 5687 5684 5687 5688 5686 5683 5676 5674 5680 5684 5685 5684 5684 5684 5683 5682 5681 5680 5679 5678 5677 5677 5676 5676 5676 5676 5676 5676 5676 5675 5676 5676 5676
5701 5699 5697 5696 5694 5692 5691 5690 5688 5687 5685 5682 5681 5681 5681 5680 5679 5673 5669 5673 5676 5679 5680 5679 5678 5677 5676 5675 5674 5673 5672 5671 5671 5671 5671 5671 5671 5670 5670 5670 5670 5671 5671
5696 5695 5694 5692 5690 5688 5687 5685 5684 5683 5681 5680 5679 5678 5676 5674 5672 5671 5668 5667 5667 5671 5674 5674 5673 5672 5671 5670 5668 5667 5666 5666 5666 5665 5665 5665 5665 5665 5665 5665 5665 5665 5666
5690 5690 5690 5688 5686 5684 5683 5682 5679 5678 5677 5676 5675 5674 5675 5674 5674 5672 5667 5664 5664 5665 5667 5668 5669 5668 5666 5664 5663 5662 5661 5661 5661 5660 5660 5660 5659 5659 5659 5660 5660 5660 5661
5688 5688 5686 5684 5682 5681 5679 5677 5675 5674 5674 5672 5672 5671 5671 5671 5672 5670 5666 5661 5657 5657 5659 5660 5663 5663 5661 5659 5658 5657 5656 5656 5655 5655 5654 5654 5654 5654 5654 5654 5655 5655 5655
5687 5685 5683 5681 5679 5677 5675 5673 5671 5670 5669 5668 5668 5667 5667 5667 5668 5667 5666 5663 5655 5649 5650 5654 5655 5657 5656 5655 5654 5652 5651 5651 5650 5650 5649 5649 5649 5649 5649 5649 5650 5650 5650
5684 5682 5680 5678 5676 5673 5671 5669 5667 5666 5665 5664 5664 5663 5662 5662 5662 5662 5662 5660 5658 5652 5647 5649 5651 5652 5652 5650 5649 5647 5646 5646 5645 5644 5644 5644 5644 5644 5644 5644 5644 5645 5644
5681 5679 5676 5674 5672 5669 5667 5665 5663 5662 5660 5659 5659 5659 5658 5658 5657 5657 5656 5655 5653 5650 5644 5645 5647 5647 5646 5645 5643 5642 5642 5641 5640 5639 5639 5639 5638 5638 5638 5638 5638 5639 5639
5676 5674 5672 5670 5668 5666 5664 5661 5659 5658 5656 5655 5655 5654 5654 5654 5652 5652 5651 5649 5648 5647 5643 5639 5640 5640 5640 5640 5639 5638 5637 5636 5636 5635 5635 5634 5634 5634 5633 5633 5633 5633 5633
5670 5669 5667 5665 5663 5661 5659 5657 5656 5654 5653 5652 5652 5650 5650 5649 5647 5647 5646 5645 5644 5644 5641 5636 5634 5635 5635 5635 5633 5633 5633 5632 5632 5631 5630 5630 5629 5629 5629 5628 5628 5628 5628
5664 5662 5661 5659 5658 5656 5654 5653 5651 5650 5650 5649 5649 5647 5646 5646 5644 5643 5642 5640 5639 5637 5635 5632 5630 5629 5628 5629 5627 5626 5625 5626 5626 5627 5625 5625 5624 5624 5624 5623 5623 5623 5622
5657 5656 5654 5653 5651 5650 5649 5647 5646 5645 5645 5644 5644 5643 5643 5643 5642 5640 5639 5636 5634 5631 5629 5627 5624 5623 5622 5621 5619 5620 5619 5619 5620 5621 5620 5620 5619 5619 5619 5618 5618 5617 5617
5649 5648 5646 5645 5643 5643 5643 5642 5640 5640 5640 5639 5638 5638 5639 5638 5637 5636 5634 5633 5631 5628 5625 5622 5620 5618 5617 5617 5616 5615 5613 5612 5611 5615 5614 5613 5614 5613 5613 5613 5613 5612 5612
5641 5639 5638 5637 5635 5633 5634 5634 5634 5634 5633 5634 5633 5633 5634 5634 5632 5630 5629 5628 5626 5625 5624 5620 5617 5616 5614 5613 5611 5609 5608 5607 5607 5609 5608 5607 5608 5607 5609 5609 5608 5607 5606
5633 5630 5629 5628 5627 5627 5627 5626 5626 5626 5627 5627 5628 5627 5627 5626 5627 5625 5623 5622 5620 5620 5619 5617 5616 5615 5613 5611 5609 5606 5604 5604 5604 5604 5603 5600 5601 5601 5603 5603 5603 5602 5602
5624 5622 5621 5620 5618 5618 5618 5619 5618 5617 5618 5620 5621 5622 5622 5620 5621 5620 5617 5615 5614 5613 5614 5613 5612 5610 5608 5606 5604 5600 5598 5595 5594 5595 5596 5594 5594 5595 5596 5597 5597 5596 5596
5616 5615 5613 5612 5611 5609 5610 5610 5610 5610 5610 5612 5613 5614 5615 5614 5614 5613 5611 5608 5606 5605 5605 5605 5604 5603 5601 5600 5598 5595 5593 5590 5588 5587 5589 5588 5587 5587 5587 5589 5590 5589 5589